Location: Unspecified
(48.8656°N, 0.0000°E)
Time: 02:10:54
(UTC+00:00)

Transit 2A Rocket - Pass Details

Date: 24 June 2019
Orbit: 590 x 913 km, 66.7° (Epoch: 16 August)

Event Time Altitude Azimuth Distance (km) Brightness Sun altitude
Rises 14:17:01 0° 309° (NW) 3,469 8.6 53.3°
Reaches altitude 10° 14:21:20 10° 338° (NNW) 2,464 7.7 52.7°
Maximum altitude 14:23:36 12° 2° (N) 2,261 7.4 52.4°
Drops below altitude 10° 14:25:49 10° 26° (NNE) 2,380 7.4 52.1°
Sets 14:29:49 0° 56° (NE) 3,223 7.9 51.5°
